Theta_e
311 311 311 312 312 313 314 315 316 316 317 318 318 319 321 321 320 311 305 311 315 320 315 304 304 302 301 297 299 296 289 286 288 286 288 293 294 298 299 300 301 308 313 316 328
310 310 310 310 311 312 313 314 314 315 317 318 319 320 320 321 312 306 317 321 321 319 302 301 299 299 296 297 298 295 288 290 293 290 292 293 292 295 296 297 299 306 315 322 329
308 308 309 309 310 311 312 313 313 313 315 317 318 319 320 318 302 298 316 318 319 313 304 303 300 298 294 296 296 294 290 293 293 294 295 293 293 293 294 296 299 305 312 319 326
308 308 308 309 310 311 312 311 312 313 315 317 318 319 320 310 292 299 316 317 318 306 302 299 298 294 292 292 297 290 294 295 296 295 295 293 294 293 293 297 296 298 314 319 323
307 308 308 309 310 311 311 311 313 316 319 319 318 318 308 298 295 301 311 307 303 301 297 297 295 294 290 292 292 291 294 296 296 295 294 294 293 292 293 297 297 303 316 318 322
307 307 308 309 310 310 310 311 314 317 317 316 317 317 301 292 303 300 299 301 300 298 297 296 295 297 293 292 291 292 293 293 294 294 293 293 293 291 296 298 296 297 315 318 318
307 307 308 309 310 310 310 311 313 317 315 315 315 307 297 294 300 299 299 298 299 299 296 298 298 295 294 291 294 293 289 292 291 293 292 293 289 289 298 297 296 295 297 314 317
306 306 309 310 311 310 310 311 311 313 316 314 311 299 292 303 304 303 298 297 299 300 299 300 299 296 293 294 291 289 287 283 291 292 293 293 288 293 297 295 294 294 293 295 312
305 306 307 308 310 310 309 310 312 313 311 310 297 295 291 305 299 301 297 294 296 298 298 299 297 292 291 286 284 284 281 284 288 292 291 288 284 292 294 292 292 292 292 292 294
305 306 307 307 309 308 307 308 307 306 302 300 298 288 289 292 297 299 299 296 294 294 293 292 289 285 285 284 279 281 280 283 283 288 289 286 286 290 294 290 289 289 290 291 292
304 305 306 306 306 305 299 294 290 291 293 289 290 288 290 295 299 295 297 294 293 290 284 287 284 281 283 285 285 284 282 281 284 288 286 286 287 289 292 292 289 289 291 291 291
304 304 305 305 305 302 295 289 290 293 288 293 292 292 294 294 290 290 295 289 287 284 287 284 281 286 288 287 285 283 281 281 284 288 286 285 285 289 290 291 293 293 292 291 292
303 304 305 303 302 294 287 287 293 295 287 287 292 288 288 289 288 285 289 288 285 284 284 281 284 288 286 285 283 284 283 282 282 285 286 283 283 287 289 291 293 293 294 295 294
303 303 304 301 290 288 284 291 292 292 276 279 286 287 287 287 283 289 289 286 286 283 284 281 286 285 284 283 284 280 287 286 285 283 276 283 276 283 286 290 291 292 292 294 295
302 302 303 298 286 284 288 292 292 286 262 280 284 290 286 283 283 282 288 286 280 281 283 279 282 283 282 283 286 283 287 285 284 283 280 280 278 280 286 288 290 290 291 293 294
302 302 302 293 287 287 290 291 287 270 260 278 282 279 280 281 280 282 283 285 285 282 281 280 285 285 281 284 287 288 285 283 283 284 276 279 279 281 284 282 285 287 289 289 289
301 300 297 291 284 290 289 284 271 265 275 274 276 278 278 276 277 278 277 274 272 268 271 276 278 282 282 277 283 282 279 268 270 274 272 279 279 283 284 286 287 288 289 291 289
300 296 295 291 289 288 284 277 263 264 272 279 278 278 275 275 275 275 276 274 275 272 266 267 267 275 277 276 277 276 280 271 268 268 272 278 276 280 285 287 288 288 289 290 291
296 285 285 288 288 287 280 265 263 272 277 276 276 272 272 276 273 271 272 274 274 274 263 267 269 276 276 278 277 272 270 279 275 274 272 274 279 282 285 285 286 286 288 288 291
283 282 283 288 286 283 275 271 271 278 277 278 272 274 268 271 269 269 270 274 273 276 276 270 263 274 277 278 279 276 278 271 270 269 267 271 275 277 279 281 285 286 286 288 291
281 278 284 286 283 277 266 263 277 278 277 276 273 272 272 270 270 267 269 275 274 274 275 273 268 269 275 272 270 272 272 272 271 271 268 266 274 280 278 280 281 283 287 288 290
279 272 284 283 273 259 261 268 279 276 277 276 276 274 272 272 270 270 270 274 278 275 268 274 265 264 268 273 276 275 272 271 265 262 267 268 269 281 280 281 282 282 285 289 289
275 273 282 280 265 259 268 275 277 275 275 275 274 275 274 272 262 270 270 276 277 275 270 270 263 255 260 266 271 268 271 272 272 270 259 264 265 279 280 280 281 280 282 284 285
274 269 273 274 274 272 264 268 268 277 276 277 275 275 273 270 273 262 269 275 277 275 280 277 268 262 257 263 267 266 268 270 269 262 265 267 268 273 276 277 279 281 282 282 283
273 269 272 263 268 273 273 269 267 268 275 276 274 273 272 262 268 263 269 273 275 278 276 269 258 264 267 269 269 268 269 269 267 268 264 268 269 274 275 276 277 281 281 281 282
271 270 271 269 275 273 271 270 271 272 273 271 272 274 274 264 270 264 272 272 271 273 272 273 264 263 264 267 268 267 269 269 269 270 269 270 270 277 276 277 276 279 280 280 281
279 281 275 272 271 267 269 273 273 275 276 277 275 273 272 274 276 276 276 276 275 273 270 271 263 256 257 263 259 255 263 268 270 272 273 268 273 276 273 275 276 277 280 279 281
Wind_Speed
23 23 23 24 24 24 23 22 22 21 20 18 17 16 15 15 15 4 6 5 4 7 8 6 2 3 3 2 3 3 2 4 5 5 6 6 5 1 3 4 2 4 3 2 15
24 24 23 24 24 24 24 24 22 21 20 19 18 16 15 14 2 6 10 11 9 9 5 5 2 0 4 3 2 3 3 8 7 4 5 5 2 5 3 1 3 1 2 7 17
24 24 24 24 24 24 24 24 24 23 19 17 16 16 14 7 3 5 12 12 10 7 3 1 2 3 5 4 5 5 7 4 5 5 4 4 5 4 3 5 5 7 5 9 14
25 24 24 24 24 23 23 24 25 23 20 17 14 14 12 2 5 4 15 14 9 4 4 3 1 2 3 5 3 3 9 6 4 1 4 4 6 6 4 6 1 7 4 9 16
27 27 26 25 24 24 24 24 22 19 17 13 10 9 3 7 4 7 13 10 5 5 3 2 2 2 3 4 5 4 5 6 5 7 6 5 8 5 9 10 7 4 7 12 14
28 28 27 27 26 25 26 24 18 14 11 11 9 7 4 10 6 9 9 5 4 4 5 4 3 2 4 3 2 5 6 9 7 5 5 4 5 4 9 6 7 6 9 9 11
29 30 29 29 28 27 28 20 16 11 13 8 7 3 15 3 6 8 9 5 2 1 3 2 3 3 6 6 5 5 7 8 5 5 7 5 8 9 19 4 8 9 8 8 10
27 28 27 28 27 28 29 19 13 13 12 6 6 3 6 2 7 8 9 6 7 1 3 2 2 1 1 6 7 4 2 4 4 2 4 6 17 7 7 7 11 11 9 9 13
27 26 27 27 24 27 26 17 11 12 12 8 8 7 7 13 14 10 6 7 9 5 2 2 3 3 4 3 4 4 5 6 8 1 3 6 5 5 4 3 9 9 7 8 9
27 27 27 26 22 26 21 8 9 11 8 3 8 7 11 9 8 11 7 6 5 7 5 7 5 3 4 6 4 6 6 6 4 8 8 13 13 14 13 5 8 9 9 8 10
27 26 26 26 18 27 12 7 11 11 13 5 3 3 6 11 5 16 8 10 7 8 7 6 5 6 5 4 6 7 8 13 12 13 14 17 24 15 14 13 8 9 13 11 11
28 27 25 25 10 20 10 9 5 3 6 4 4 4 5 5 5 21 14 9 8 7 9 8 5 4 7 6 4 4 7 7 9 5 7 10 26 17 17 19 16 14 14 13 10
28 27 25 23 5 7 8 7 6 3 0 6 4 6 7 8 6 17 13 8 5 8 7 1 4 8 5 9 12 6 5 3 7 10 8 9 22 10 8 15 12 13 15 13 16
29 26 23 18 8 4 4 8 5 2 6 14 9 9 10 5 4 5 10 3 7 6 7 3 6 8 12 9 9 6 4 3 5 4 3 5 17 4 1 9 5 8 9 13 14
28 24 18 15 1 5 6 9 5 3 7 11 7 5 11 10 8 17 13 8 6 6 5 6 8 12 8 9 11 6 9 6 4 6 2 5 6 2 6 14 12 18 20 17 13
28 20 11 5 3 1 6 6 3 10 3 6 7 10 7 7 8 8 10 11 3 5 6 5 6 4 4 12 5 11 11 15 5 5 9 9 9 12 6 7 15 20 21 20 19
28 14 5 2 7 10 5 3 8 8 6 9 6 8 4 9 8 10 7 21 10 10 9 9 5 5 14 14 9 23 9 6 5 3 6 3 4 12 12 12 12 15 19 20 18
25 7 5 2 7 5 2 8 9 5 3 3 5 5 4 10 5 10 4 5 10 3 3 4 11 8 16 5 10 11 3 3 9 5 12 5 5 2 4 8 11 13 15 18 24
14 4 3 8 8 2 7 9 7 4 3 6 4 5 5 5 4 7 6 3 4 8 3 6 6 11 14 9 1 10 4 12 9 13 10 6 5 6 14 19 23 22 20 23 22
3 3 4 15 7 5 9 4 2 2 3 2 2 4 5 7 6 6 5 2 5 5 0 4 7 7 8 7 7 9 10 7 6 6 5 5 4 3 18 21 19 22 21 20 22
5 5 5 14 5 10 6 5 1 1 2 2 1 2 3 3 2 2 2 3 4 4 6 2 3 7 5 6 14 7 6 6 5 5 6 6 3 12 18 17 17 17 18 16 19
3 5 6 8 9 2 3 4 2 2 3 2 3 2 1 3 2 2 2 3 5 1 4 3 4 5 11 8 4 9 3 5 4 9 7 7 7 13 22 21 19 19 19 17 18
3 2 6 5 5 3 5 1 1 1 2 1 1 2 1 1 3 3 2 3 3 3 1 3 3 5 12 7 4 2 10 7 8 9 5 7 9 23 16 17 19 20 20 19 20
4 5 6 7 0 4 2 2 4 3 2 1 1 2 2 1 3 4 3 5 5 6 11 6 2 8 8 11 11 13 13 13 9 4 11 15 24 20 12 13 15 15 16 19 19
4 1 4 3 5 2 1 3 1 3 2 1 2 4 4 1 3 4 4 6 5 9 2 4 4 4 10 14 16 17 20 18 16 14 15 19 18 16 12 10 13 8 12 13 18
4 4 3 3 1 2 3 3 5 4 2 3 5 4 5 6 8 8 9 4 6 3 3 3 8 3 12 14 13 15 19 17 19 19 20 22 20 0 9 9 11 10 11 9 11
1 1 5 3 2 4 4 4 5 4 4 6 5 3 7 12 8 11 9 10 10 10 9 5 3 2 8 3 5 7 9 6 8 4 1 9 8 5 8 11 10 10 8 9 9
Wind_Direction
7 4 360 356 353 350 348 346 342 338 334 329 330 332 337 339 331 352 32 355 334 356 349 331 336 288 73 267 167 140 38 244 250 174 252 322 345 342 295 144 228 199 164 312 132
5 2 358 354 351 349 347 343 339 334 330 329 328 327 331 337 42 44 340 353 347 352 3 345 346 11 292 262 190 153 182 233 213 208 255 294 296 319 330 227 237 248 50 118 142
4 359 356 353 351 349 346 341 334 329 324 322 320 321 325 327 73 356 341 345 344 352 301 285 293 257 214 195 203 178 223 215 260 245 256 268 303 334 310 261 226 207 173 161 165
3 359 355 353 351 348 343 338 331 325 322 322 318 318 315 258 70 321 341 335 331 339 328 324 300 240 257 223 202 213 252 242 269 318 319 278 316 306 200 248 37 284 195 172 177
1 358 356 354 351 347 341 338 332 332 329 343 340 333 311 53 16 304 326 331 352 351 13 343 251 264 270 316 324 245 299 289 266 293 268 299 261 250 277 254 283 348 179 189 196
1 358 356 354 351 348 343 339 337 341 356 358 2 335 39 67 301 318 326 341 19 21 352 14 360 311 273 277 260 321 289 285 287 266 263 257 265 138 267 283 231 221 209 204 208
1 358 355 353 351 347 344 343 344 329 331 352 21 22 70 39 324 324 344 307 335 98 3 350 349 5 346 314 336 292 307 304 243 222 237 176 278 220 244 228 261 236 235 214 226
3 359 355 353 348 344 342 343 350 348 0 16 17 61 92 331 315 351 336 325 339 209 164 287 342 287 269 318 335 329 281 332 299 110 290 179 262 284 255 204 247 251 234 230 229
2 359 357 353 348 343 340 334 346 353 5 357 35 89 19 336 0 331 350 319 311 336 342 147 84 73 4 331 334 337 262 272 319 264 309 203 283 278 23 184 258 276 271 255 266
2 358 356 354 355 353 344 327 338 11 357 333 49 37 6 317 323 322 328 341 335 337 4 26 45 73 37 26 301 331 322 320 301 329 343 303 278 282 290 286 255 286 282 260 250
3 359 355 354 3 6 4 18 15 357 31 53 321 84 289 305 332 354 339 341 6 49 14 340 46 40 334 264 248 288 281 286 291 285 284 275 279 275 281 281 275 257 266 263 248
1 357 355 352 10 21 22 64 38 289 332 334 269 285 279 320 345 359 356 39 27 22 348 8 72 12 321 292 273 269 286 288 275 321 298 296 283 271 274 270 261 260 260 257 265
0 355 352 352 34 35 64 78 307 330 18 324 353 6 341 358 31 359 11 336 34 16 8 42 299 338 359 336 329 285 235 277 289 328 259 283 280 265 239 252 264 252 252 258 244
358 355 354 349 40 328 52 346 338 249 70 345 346 2 347 319 72 356 10 342 359 6 339 314 312 3 345 333 357 321 283 271 276 359 276 36 291 113 236 264 301 284 263 258 259
356 354 2 33 196 44 306 326 311 68 60 324 338 318 332 45 321 353 333 353 32 319 35 288 317 356 14 327 316 299 329 291 233 251 284 206 257 313 12 310 322 356 350 347 326
354 354 358 24 30 62 315 315 47 44 265 350 355 349 14 20 6 316 20 24 46 3 6 291 297 55 323 311 0 347 323 296 255 223 254 236 189 285 50 355 353 351 346 345 340
350 355 31 27 320 320 319 58 36 91 319 328 343 348 32 344 4 8 26 42 29 9 8 334 343 3 23 353 332 358 356 332 330 206 233 34 280 271 33 22 8 348 351 348 349
345 8 5 110 313 316 65 50 69 238 281 348 345 318 53 7 21 350 30 56 29 3 333 6 336 10 359 359 331 314 31 289 299 333 302 343 225 316 18 4 360 11 351 356 357
351 345 17 335 338 355 70 51 185 212 313 336 342 35 354 13 6 12 25 74 33 12 69 344 278 334 324 317 175 310 3 317 273 258 259 228 257 195 25 14 4 358 2 356 355
38 5 323 336 340 53 68 118 172 30 331 348 22 56 3 349 22 29 359 1 355 18 283 290 307 303 333 330 15 344 278 329 312 287 277 306 300 15 16 6 356 347 350 346 351
44 40 273 339 38 47 95 199 128 62 19 18 151 30 88 1 309 306 275 151 355 329 325 283 166 301 339 3 322 349 28 346 318 344 313 346 299 39 17 358 339 339 339 337 348
34 36 317 347 51 28 88 190 334 3 359 27 89 81 105 357 323 295 269 233 22 82 329 262 192 291 298 290 163 71 49 45 1 325 291 261 248 30 18 348 345 349 338 346 357
55 274 326 31 80 347 313 65 339 5 10 32 106 96 85 57 355 254 283 275 338 39 323 295 311 343 337 355 351 37 319 333 294 256 232 267 282 345 2 351 357 357 355 358 357
68 22 340 36 74 105 90 329 329 345 292 260 262 121 89 326 198 255 258 306 331 295 289 278 214 171 212 249 280 298 293 296 268 233 274 261 288 302 337 337 336 344 352 356 354
26 248 173 329 347 65 117 143 357 323 274 222 323 191 172 252 281 257 267 286 272 278 288 121 235 234 244 256 271 273 279 273 258 254 249 268 273 294 319 321 331 341 339 356 354
115 113 355 169 264 68 345 246 193 274 175 272 224 247 209 195 213 248 277 271 253 303 182 179 272 330 286 261 264 267 271 272 267 269 263 269 274 286 318 315 331 323 320 344 352
236 33 104 274 97 88 231 221 214 170 268 229 233 255 267 265 245 251 246 255 246 249 248 222 197 75 263 352 349 330 245 233 271 250 280 308 299 294 313 315 317 305 314 326 319